Theta_e
319 311 309 307 299 294 291 295 299 300 298 305 310 309 309 312 307 301 326 332 336 336 339 343 346 348 346 345 344 344 344 342 342 341 340 341 341 341 339 339 341 339 341 340 341 342 341 340 341
312 311 306 300 293 289 289 294 299 301 307 313 309 311 311 309 321 326 326 333 335 340 342 343 345 348 346 345 344 344 342 343 343 343 341 339 339 338 338 338 338 338 338 340 339 340 339 339 339
309 309 301 296 290 288 290 297 300 302 309 301 307 312 312 314 322 325 332 336 338 338 340 342 345 347 346 344 343 344 343 343 343 343 341 338 338 338 337 338 336 337 336 337 339 339 337 336 338
305 303 299 294 290 291 294 300 302 300 299 309 310 308 315 322 324 331 336 336 335 336 339 342 346 347 345 344 342 343 343 343 342 342 341 338 337 338 337 337 337 338 336 336 337 337 335 334 337
303 299 294 291 289 291 295 301 300 300 299 302 306 306 311 323 332 333 333 334 333 334 337 340 344 346 345 343 340 342 342 341 340 340 341 338 338 339 338 339 337 336 335 335 335 335 334 333 334
298 298 291 290 289 294 298 300 300 297 302 307 310 310 311 326 328 330 333 331 333 335 336 338 337 341 343 343 342 341 342 340 339 339 339 340 339 339 337 336 336 336 335 334 334 334 333 331 331
297 295 291 290 289 294 298 300 298 300 304 303 313 307 310 320 327 331 330 330 332 333 333 333 336 337 336 338 338 339 340 340 339 338 337 338 340 340 339 337 336 335 335 334 333 332 332 331 330
298 296 292 290 290 292 297 298 299 299 298 309 315 308 314 320 328 329 329 328 329 330 330 330 331 334 335 334 332 334 336 337 337 334 331 330 331 332 333 332 336 335 334 334 332 331 330 330 329
300 293 291 293 291 293 297 296 297 300 302 304 309 314 318 325 327 325 325 326 328 328 328 328 328 331 333 332 328 329 330 331 330 328 324 322 322 323 325 328 333 335 334 332 331 330 328 327 325
295 292 295 298 295 296 297 296 298 301 303 306 309 315 322 326 324 322 321 321 324 325 324 327 326 327 332 334 328 327 326 324 324 323 322 322 321 321 322 321 326 330 329 330 329 328 325 321 317
295 292 297 299 297 298 298 295 296 299 296 307 309 316 319 324 323 322 322 322 322 324 324 324 325 326 327 331 325 324 322 321 321 321 322 322 321 319 318 317 317 317 318 317 318 318 317 317 316
293 297 296 299 298 298 296 297 296 297 298 306 315 320 319 322 323 323 322 322 322 322 323 324 325 326 325 326 325 324 322 321 320 321 322 319 318 317 316 316 316 315 316 315 314 316 316 316 316
296 297 297 298 297 297 297 294 295 296 296 314 317 320 318 321 323 324 325 324 324 323 324 324 324 324 324 324 324 324 323 323 322 322 322 319 318 317 317 316 316 315 315 315 314 314 315 314 315
301 300 296 297 295 295 296 293 295 296 302 313 316 317 318 318 320 322 323 323 324 325 325 325 325 326 325 324 324 324 324 325 324 323 322 321 318 317 317 317 317 316 316 315 315 314 313 313 313
303 298 298 294 294 293 295 291 293 294 307 312 314 315 316 318 318 320 323 324 326 327 327 326 326 326 325 324 325 325 325 326 324 324 324 322 321 319 318 316 316 316 316 315 313 313 312 311 312
297 293 287 293 294 292 293 289 294 295 308 309 310 310 313 315 317 319 322 324 326 328 327 328 329 327 325 325 325 325 325 324 324 325 325 326 323 321 318 316 316 316 316 314 313 312 310 310 309
292 287 285 289 293 291 290 289 293 293 303 307 307 309 311 314 315 317 319 321 325 328 328 328 329 327 326 325 326 326 326 327 329 329 329 328 327 324 319 317 317 316 315 314 314 312 309 309 312
287 285 286 287 290 289 288 290 290 291 295 301 302 303 306 311 316 318 317 318 322 326 328 329 329 329 327 327 326 327 330 330 330 330 329 328 328 326 323 319 318 319 318 317 316 315 315 313 313
290 289 287 289 291 289 288 289 291 290 288 290 292 293 296 303 311 309 312 315 316 321 326 328 327 327 327 324 324 328 327 329 329 329 330 330 330 328 326 324 322 320 316 318 318 316 315 312 313
289 288 287 288 290 288 286 288 288 289 290 291 292 291 291 293 297 300 302 309 313 318 324 326 328 327 327 328 327 324 324 329 330 330 329 329 329 329 328 326 324 322 320 318 317 315 314 313 312
288 288 286 287 288 287 285 286 286 290 289 290 292 291 291 294 295 296 296 298 302 309 317 323 326 327 328 327 325 325 327 327 327 327 327 328 329 328 328 327 326 324 322 319 317 316 315 313 313
287 289 289 287 285 281 285 279 283 287 289 289 291 291 292 292 294 295 296 297 298 298 300 304 319 324 326 326 326 326 325 323 325 327 328 328 327 326 326 325 324 323 322 320 318 317 316 314 311
289 290 289 288 284 281 280 279 281 283 286 289 290 292 292 292 293 295 296 299 300 303 302 301 300 318 325 326 327 327 324 323 325 325 320 315 313 315 317 319 320 319 318 316 315 314 313 313 312
292 289 287 285 283 278 282 281 280 282 286 289 293 292 292 292 293 294 297 300 301 302 303 299 298 300 320 325 326 326 324 321 321 320 315 309 308 307 307 308 307 307 307 306 305 304 302 302 302
290 286 279 278 277 278 277 278 286 284 286 288 289 292 292 291 294 296 297 298 300 302 303 298 300 303 313 324 324 322 321 322 320 318 310 305 303 301 301 300 298 297 298 299 298 297 295 295 294
286 287 279 272 273 276 279 277 282 287 286 288 289 289 290 292 295 296 298 298 298 301 301 302 304 305 312 321 318 316 318 316 313 309 305 301 299 297 295 294 294 294 294 294 293 291 291 290 290
285 282 287 279 271 275 277 280 285 286 287 289 290 289 291 292 295 296 297 297 297 299 301 302 301 300 305 307 307 306 306 305 302 299 298 296 295 293 292 291 291 291 291 291 290 288 288 288 288
288 289 283 281 272 271 276 277 279 282 288 288 289 290 291 292 294 295 295 295 296 297 297 297 297 297 297 300 301 298 298 297 296 296 294 292 291 290 290 289 289 289 289 288 288 287 287 287 287
284 283 283 285 281 275 272 277 284 287 289 289 290 290 291 292 293 293 294 294 294 294 294 294 294 294 293 294 294 294 293 294 293 291 290 290 289 289 288 288 287 287 287 287 286 286 285 285 285
286 286 287 283 279 277 278 278 285 287 287 288 290 292 292 292 293 293 292 292 291 292 292 292 292 292 291 292 292 291 291 291 290 289 288 288 287 287 286 286 286 286 286 285 285 284 284 283 283
Wind_Speed
5 6 3 5 5 6 1 3 1 2 2 4 3 5 7 4 3 3 1 5 10 6 7 6 11 13 15 15 13 13 13 14 15 16 17 17 16 17 18 17 14 16 16 16 17 19 19 17 17
4 4 5 3 6 3 4 3 5 3 6 8 7 3 6 3 3 6 4 6 9 8 7 7 11 13 15 14 12 13 13 14 14 17 17 16 16 17 17 15 15 16 17 17 17 18 18 17 15
5 5 4 5 4 4 5 4 5 3 7 1 5 5 3 3 3 7 5 9 8 7 6 7 13 15 15 14 13 12 14 13 14 17 17 16 15 16 17 15 15 15 16 15 16 17 17 17 15
5 5 5 4 3 4 5 6 5 6 2 6 5 6 2 1 6 7 10 9 9 7 5 6 13 15 16 13 14 13 13 13 14 14 17 15 15 16 16 15 13 14 14 13 14 16 16 17 16
5 3 3 2 3 3 3 4 6 5 3 3 2 3 3 3 8 14 11 9 10 7 5 5 10 14 15 14 14 13 13 14 13 13 14 14 15 13 13 13 16 14 14 13 12 14 15 16 16
4 3 4 2 3 1 2 3 5 2 3 3 5 5 3 4 11 10 10 7 7 9 5 5 8 9 12 13 13 12 12 13 12 12 12 12 12 13 13 14 14 13 12 12 12 12 13 14 14
5 4 5 4 2 1 5 6 5 6 7 3 8 5 2 3 6 11 9 7 7 7 6 3 6 7 9 10 10 11 10 11 10 10 10 10 10 10 11 10 12 12 11 11 10 10 11 12 12
5 5 6 4 5 4 3 4 5 5 2 3 5 7 6 6 8 11 9 7 6 6 5 4 4 7 6 6 8 9 9 10 9 9 9 9 10 10 8 7 10 11 10 8 8 9 10 11 11
3 4 3 6 7 4 5 4 3 1 7 1 2 6 6 15 9 13 10 6 6 5 6 6 5 6 8 6 6 8 8 7 7 7 8 6 4 5 6 6 9 10 8 7 7 8 9 10 10
5 2 9 6 6 6 7 6 9 5 4 1 2 3 14 15 13 13 13 12 11 8 5 6 5 4 7 5 5 5 5 4 4 4 5 4 4 4 5 6 7 7 7 6 5 5 7 7 4
2 4 3 3 4 6 8 7 4 8 3 7 9 15 16 16 11 10 10 12 12 9 6 5 6 5 4 6 3 2 2 3 3 5 4 3 3 3 3 2 2 2 4 3 4 3 3 4 3
4 2 4 5 1 7 8 8 5 5 6 8 13 24 17 18 15 13 10 11 10 8 8 7 6 6 5 3 4 3 3 3 3 3 4 4 2 2 1 1 1 1 1 1 2 1 3 4 4
4 5 5 6 4 6 7 2 6 5 2 8 10 17 17 16 14 10 11 8 9 9 8 10 7 7 5 5 3 3 4 4 4 4 4 3 3 3 3 2 1 1 0 1 1 2 3 3 4
5 11 9 5 4 1 6 1 2 4 5 8 13 15 16 17 16 10 9 11 10 11 10 10 10 9 8 6 7 6 4 4 4 4 4 5 4 4 3 3 3 3 2 1 1 2 1 2 3
6 10 14 6 2 2 5 1 6 3 8 12 12 13 11 11 11 15 14 12 13 11 11 12 12 9 9 9 7 5 5 4 4 4 5 4 4 4 4 3 3 3 1 1 1 2 1 3 3
4 5 4 5 4 2 4 10 6 6 11 11 9 8 8 9 13 10 11 11 11 10 11 10 10 11 10 7 6 4 4 4 4 4 4 6 6 4 3 2 3 2 2 2 2 2 3 3 3
6 10 7 7 6 3 4 7 6 7 9 10 9 9 9 8 8 8 9 11 12 12 12 11 9 11 11 7 5 5 6 5 5 3 4 5 5 6 5 4 4 3 2 2 1 1 2 2 3
9 8 5 7 5 2 4 7 2 6 9 13 10 8 8 9 17 13 10 9 11 12 12 13 10 11 8 6 4 3 5 4 4 4 4 5 4 6 5 3 3 3 3 2 2 3 2 2 3
5 7 5 4 3 5 8 8 9 5 3 7 9 8 10 13 9 7 9 9 8 8 11 13 12 10 8 4 5 6 6 4 3 3 6 6 5 5 5 3 3 3 4 3 3 1 2 2 2
8 8 6 1 1 3 3 11 4 6 8 9 12 11 11 6 7 7 6 8 10 13 14 13 14 12 11 9 6 3 4 3 3 4 5 6 6 6 5 6 5 5 3 4 3 2 1 1 1
10 11 6 4 4 1 3 8 4 6 4 4 8 7 6 12 12 8 8 8 6 9 12 12 12 12 12 11 5 2 2 2 3 3 3 4 6 6 5 3 2 3 3 3 3 2 3 1 1
17 4 6 5 5 5 4 7 6 7 10 7 9 9 11 11 7 6 8 7 7 6 4 6 7 9 9 10 9 9 7 6 4 4 4 2 2 3 4 3 4 3 2 3 1 2 1 2 1
11 6 6 4 3 4 2 1 8 2 10 10 11 14 13 10 9 10 9 6 4 4 5 5 5 6 9 12 12 10 8 4 4 3 8 7 6 7 6 6 6 5 4 5 5 4 4 2 2
7 4 6 4 2 4 8 8 6 8 9 9 18 11 12 9 8 7 6 7 5 3 3 5 6 7 7 12 13 13 12 7 6 7 7 5 4 4 6 7 6 6 5 5 5 5 6 4 5
10 9 2 1 2 10 0 4 13 5 8 8 10 13 12 9 9 8 9 8 6 6 6 5 7 8 8 13 13 10 9 11 10 9 8 7 4 3 5 5 5 4 5 6 6 6 6 6 4
7 10 6 8 5 2 2 8 9 10 4 8 9 8 8 11 9 9 8 7 7 6 5 6 7 6 7 12 9 7 10 8 7 8 7 5 5 4 5 6 6 6 7 6 6 5 4 6 5
6 8 6 7 2 4 6 8 10 4 10 7 9 6 11 11 12 12 8 7 7 6 7 7 6 4 4 7 8 8 9 12 10 10 8 7 7 6 7 7 7 6 7 7 6 5 6 5 5
9 10 4 2 5 4 5 5 7 5 11 12 10 14 9 6 8 7 7 7 6 5 4 4 4 5 5 7 8 8 9 12 11 11 9 8 7 6 7 6 6 7 7 7 6 5 5 6 4
3 4 2 4 5 7 1 8 10 15 18 14 11 3 6 8 8 8 7 5 6 5 5 5 6 7 7 6 8 10 9 12 10 11 8 8 7 7 7 6 6 7 6 6 6 6 6 6 5
2 6 12 8 10 1 3 9 3 9 9 6 6 9 7 6 7 7 6 6 6 6 6 6 6 7 6 6 9 10 11 11 11 10 8 7 8 6 7 7 7 7 6 6 6 6 5 4 4
Wind_Direction
14 3 69 45 53 63 255 224 149 157 74 332 76 121 136 68 127 197 325 133 126 117 115 101 120 116 113 112 112 112 110 110 107 99 91 89 89 86 82 78 75 79 83 86 87 81 72 68 74
11 27 45 71 83 61 267 266 188 212 147 141 87 73 47 81 88 118 104 128 123 121 116 116 120 120 117 112 115 108 102 99 93 106 94 91 92 88 89 91 85 91 89 89 89 78 69 67 83
60 53 73 88 98 183 208 198 170 132 161 134 91 60 114 113 108 149 129 126 119 114 121 133 130 128 121 117 115 108 107 103 89 109 101 96 93 94 94 89 92 85 88 93 86 77 70 66 74
51 20 33 88 228 246 196 186 177 137 190 50 113 64 38 152 169 149 125 122 111 96 96 127 131 130 124 123 117 110 107 103 95 92 104 96 100 101 100 100 93 91 93 91 85 79 71 65 73
42 56 69 53 265 271 242 180 165 136 103 86 74 166 63 29 113 126 125 124 125 114 111 119 134 134 128 123 119 114 107 104 101 102 105 108 111 103 92 98 99 91 88 85 83 79 72 68 72
46 93 77 220 250 269 122 168 149 95 81 148 87 95 100 133 132 128 116 119 124 121 118 122 117 129 129 125 119 113 112 113 117 115 101 96 114 111 101 93 92 93 92 82 78 74 73 69 68
120 102 181 178 218 118 195 143 156 144 127 194 149 92 50 155 156 127 116 112 114 113 124 123 119 121 112 114 118 117 118 121 117 109 99 83 82 105 97 95 101 99 91 83 74 66 63 66 63
106 100 144 182 181 221 176 139 130 133 123 94 150 164 170 184 157 120 117 116 115 111 114 101 102 111 105 118 116 116 119 113 114 111 101 87 77 77 81 84 90 99 95 85 72 59 51 48 52
98 71 174 182 155 223 171 131 124 82 116 150 152 156 169 138 137 124 125 119 128 129 145 143 140 140 136 137 132 122 125 127 123 108 99 85 86 81 79 91 95 98 95 81 68 55 39 27 21
91 128 205 195 188 190 170 158 159 130 115 34 57 46 123 139 155 151 152 159 165 165 179 163 148 160 138 136 137 129 125 127 125 125 114 103 102 101 93 79 78 89 85 63 53 52 36 21 14
1 199 236 253 223 162 164 148 160 124 209 210 181 151 145 155 165 166 164 170 172 172 168 186 155 161 145 138 126 129 138 142 144 144 136 128 101 91 90 88 68 76 62 37 33 24 20 3 8
350 331 311 308 213 148 171 131 148 171 213 185 169 159 152 165 173 176 173 172 162 173 177 175 167 163 167 132 142 159 155 163 161 168 153 140 129 114 115 105 135 97 46 47 36 0 333 349 348
185 318 326 329 298 117 121 214 181 213 54 123 137 158 163 172 178 179 179 179 165 173 185 180 166 170 169 161 160 166 180 174 174 169 168 146 155 167 161 192 194 202 178 248 307 321 333 338 337
343 325 325 336 317 141 137 114 174 217 123 132 157 174 176 179 181 175 178 181 183 175 188 178 181 180 169 178 177 184 181 192 180 177 178 177 172 175 189 194 216 239 218 279 257 255 290 300 317
11 331 327 278 229 226 130 51 236 151 152 160 182 185 189 190 174 190 188 189 186 184 184 184 181 183 183 184 188 181 186 176 184 187 182 189 182 185 182 199 220 222 218 250 290 290 312 326 324
47 311 289 291 167 204 119 235 236 156 148 182 191 199 201 207 197 185 190 188 192 187 180 188 184 184 185 186 177 172 181 173 184 189 185 187 184 187 191 222 241 224 201 208 251 297 322 299 300
216 213 206 277 210 141 154 245 232 158 166 193 201 205 210 210 224 204 187 189 188 191 186 186 180 180 185 179 173 174 173 188 196 179 181 181 184 178 186 207 235 219 214 216 218 258 227 273 283
176 209 218 195 207 170 185 256 261 194 169 199 208 211 215 213 218 209 201 197 196 195 191 189 186 184 177 170 155 164 176 175 157 172 172 181 198 184 196 208 221 206 230 257 232 242 241 264 288
200 186 210 229 176 149 208 229 237 199 203 218 227 223 221 223 230 223 212 200 188 198 192 190 183 183 168 161 173 194 191 170 173 181 185 185 203 203 205 204 217 209 224 237 244 288 291 314 355
246 203 205 298 34 143 166 245 258 186 220 215 209 218 225 216 217 217 212 194 188 192 195 193 194 182 184 184 188 172 160 165 172 185 199 202 201 208 198 200 201 202 210 241 242 200 281 276 257
237 217 204 181 127 34 118 292 225 231 220 222 232 230 230 215 206 209 203 202 183 187 186 190 191 187 187 179 143 99 88 86 151 182 196 219 209 209 204 246 227 206 193 222 209 192 193 249 265
240 211 167 146 127 211 152 267 256 228 233 205 235 224 230 211 203 196 198 189 187 200 161 174 183 182 186 168 171 176 181 182 187 185 199 160 40 72 87 98 99 98 115 104 98 116 158 170 300
234 163 173 174 166 126 202 170 258 106 242 241 235 230 231 217 201 194 191 185 194 181 190 201 188 187 179 180 185 184 181 196 140 119 88 80 63 58 60 68 73 71 70 68 69 70 61 39 71
163 81 46 57 77 261 209 179 247 195 202 228 232 227 223 202 199 189 182 164 182 198 209 201 204 207 187 186 188 189 180 150 131 123 115 102 86 67 56 60 64 63 63 70 71 71 63 55 58
178 140 208 235 189 230 243 202 240 227 235 227 226 231 214 181 179 180 186 188 183 193 204 213 202 214 195 190 188 179 174 149 139 138 135 136 125 88 74 75 77 77 77 72 70 68 59 47 65
170 185 170 182 208 231 35 234 245 222 258 244 243 242 182 181 184 185 187 190 190 194 198 200 194 199 192 194 170 140 142 127 121 126 126 111 109 112 115 91 76 75 72 74 73 67 61 64 58
186 199 176 97 16 60 209 284 301 262 274 255 244 215 204 186 181 183 177 189 183 184 199 198 174 157 150 136 128 124 128 122 129 106 108 117 121 113 86 84 87 76 74 68 69 64 60 56 56
187 155 139 45 141 247 265 279 236 269 235 240 225 225 205 176 161 158 172 181 183 178 171 147 133 140 120 117 120 117 128 118 115 119 124 117 108 102 101 95 88 79 74 71 74 70 56 64 42
157 170 105 114 154 189 238 260 211 212 218 228 231 195 177 174 170 165 173 178 169 151 161 146 131 129 108 103 112 119 118 113 114 114 120 117 110 111 110 110 99 92 90 82 78 70 55 60 50
327 184 191 195 211 214 168 260 240 238 269 268 217 185 180 171 169 156 164 166 171 168 162 157 137 127 127 124 122 119 116 117 116 117 119 119 120 113 122 120 109 100 93 86 84 83 71 66 57